This is the latest recevied weather packets stored in our database for station/object K5GHS-1. If no packets are shown the sender has not sent any weather packets the latest 10 day(s).
| Time | Temp. | Humidity | Pressure | Rain* | Wind** | Luminosity | Snow |
|---|---|---|---|---|---|---|---|
| 1777760133 | 26.67° C | 34% | 1017.1 hPa | 0 mm | - | 362 W/m² | - |
| 1777759831 | 26.67° C | 33% | 1017 hPa | 0 mm | - | 122 W/m² | - |
| 1777759526 | 27.22° C | 29% | 1017.2 hPa | 0 mm | - | 428 W/m² | - |
| 1777759223 | 27.22° C | 31% | 1017.2 hPa | 0 mm | - | 459 W/m² | - |
| 1777758921 | 27.22° C | 31% | 1017.3 hPa | 0 mm | - | 471 W/m² | - |
| 1777758617 | 26.67° C | 33% | 1017.3 hPa | 0 mm | - | 478 W/m² | - |
| 1777758315 | 26.67° C | 32% | 1017.3 hPa | 0 mm | - | 457 W/m² | - |
| 1777758012 | 26.67° C | 31% | 1017.6 hPa | 0 mm | - | 487 W/m² | - |
| 1777757708 | 27.22° C | 31% | 1017.6 hPa | 0 mm | - | 493 W/m² | - |
| 1777757407 | 27.22° C | 31% | 1017.6 hPa | 0 mm | - | 484 W/m² | - |
| 1777757105 | 26.67° C | 31% | 1017.4 hPa | 0 mm | - | 492 W/m² | - |
| 1777756802 | 27.22° C | 31% | 1017.7 hPa | 0 mm | - | 375 W/m² | - |
| 1777756497 | 27.22° C | 32% | 1017.6 hPa | 0 mm | - | 488 W/m² | - |
| 1777756195 | 27.22° C | 32% | 1017.5 hPa | 0 mm | - | 518 W/m² | - |
| 1777755892 | 26.67° C | 32% | 1017.9 hPa | 0 mm | - | 508 W/m² | - |
| 1777755589 | 26.11° C | 34% | 1017.8 hPa | 0 mm | - | 503 W/m² | - |
| 1777755285 | 25.56° C | 32% | 1018.1 hPa | 0 mm | - | 542 W/m² | - |
| 1777754983 | 26.11° C | 32% | 1017.9 hPa | 0 mm | - | 557 W/m² | - |
| 1777754679 | 26.67° C | 31% | 1018.1 hPa | 0 mm | - | 586 W/m² | - |
| 1777754377 | 26.67° C | 33% | 1018.1 hPa | 0 mm | - | 599 W/m² | - |
| 1777754074 | 27.22° C | 29% | 1018.3 hPa | 0 mm | - | 590 W/m² | - |
| 1777753770 | 27.22° C | 31% | 1018.4 hPa | 0 mm | - | 567 W/m² | - |
| 1777753467 | 27.22° C | 32% | 1018.3 hPa | 0 mm | - | 582 W/m² | - |
| 1777753166 | 27.22° C | 31% | 1018.4 hPa | 0 mm | - | 602 W/m² | - |
| 1777752861 | 26.67° C | 32% | 1018.4 hPa | 0 mm | - | 621 W/m² | - |
* Rain latest hour (hover to see other rain measurements)
** Current wind speed in m/s (hover to see current wind gust speed)